Tracking 25195 objects as of 21-Jan-2022
HD Live streaming from Space Station
objects crossing your sky now

STARLINK-1797

Track STARLINK-1797 now!
10-day predictions
STARLINK-1797 is classified as:


NORAD ID: 46698
Int'l Code: 2020-073AE
Perigee: 552.9 km
Apogee: 555.8 km
Inclination: 53.1 °
Period: 95.6 minutes
Semi major axis: 6925 km
RCS: Unknown
Launch date: October 18, 2020
Source: United States (US)
Launch site: AIR FORCE EASTERN TEST RANGE (AFETR)
aabbcc
Your satellite tracking list
Your tracking list is empty




NASA's NSSDC Master Catalog

Two Line Element Set (TLE):
1 46698U 20073AE  22020.72609496 -.00001815  00000-0 -10297-3 0  9993
2 46698  53.0522 175.6167 0002127  73.5736 286.5486 15.06398715 70155
Source of the keplerian elements: AFSPC